DELTA 1 DEB, 21291

Orbit data source: Space-Track

DELTA 1 DEB, 21291 is space debris in SSO originally from a launch on Thu, 12 Jun 1975 UTC launched from the Air Force Western Test Range (AFWTR). Debris objects in space refer to the collection of defunct objects orbiting the Earth. Examples of debris include non-operational satellites, rocket bodies, and fragments generated from explosions, collisions, or faulty payload assembly.

Loading next visibility...
Identifier
21291, 1975-052AC
Orbit
SSO
Country
Flag of USUS
Related business
Manufacturer
Unknown
Mission
Spacecraft
Bus & Motor
Unknown
Mass
Unknown
Launch date (UTC)
1975-06-12 (50 years ago)
Launch vehicle
Unknown
Launch site
Air Force Western Test Range (AFWTR)
Object type
Payload
Rocket body
Debris
Shape & HBR
Unknown
Radar Cross Section
Small (<0.1 m²)

Expand to show TLE details & history
Last TLE update: 9 hours ago

TLE from 9 hours ago
0 DELTA 1 DEB
1 21291U 75052AC  25259.19529353  .00000347  00000-0  33546-3 0  9992
2 21291  99.8566  44.8545 0137580  44.7429 132.0570 13.83068237729764
Epoch: 2025-09-16T04:41Z
TLE epoch observation values (Epoch: 2025-09-16T04:41:13.36Z)
Latitude
1.91138°
Longitude
159.49026°
Altitude
1,023.955 km
Speed
7.306 km/s
True Right ascension
15h 00m 44s
True Declination
1° 54' 01"
Sunlit
Object was in daylight at epoch
Visualization orbit readout
Latitude
Unknown
Longitude
Unknown
Altitude
Unknown
Speed
Unknown
Apparent Right ascension
Unknown
Apparent Declination
Unknown
Sunlit
N/A
Visualization observer readout
Local Sidereal Time
06:37:44
Azimuth
Unknown
Elevation
Unknown
Doppler factor
Unknown
Orbital elements
Apogee altitude
1,051.114 km
Perigee altitude
849.465 km
Semi-major axis
7,328.426 km
Eccentricity
0.01376
Inclination
99.8566°
RAAN
44.8545°
Arg. of periapsis
44.7429°
True anomaly
133.21414°
Mean anomaly
132.057°
Eccentric anomaly
132.6369°
Mean motion
3.45961 °/min
Orbital period
104.06 mins
BSTAR
0.00033546
Loading maneuver chart data...
Computing Atmospheric mass density...
Loading historical data...
Loading historical data...
Loading historical data...
Loading historical data...
Loading historical data...
Loading historical data...
Loading historical data...

Documentation

Showing up to 5 results
|